星链-1788 (STARLINK-1788 )

导读 | 豆包AI

STARLINK-1788是美国太空探索技术公司Starlink卫星互联网项目的一员,于2020年10月18日发射入轨。它属于低轨通信卫星,运行在近地轨道,旨在为全球提供高速宽带互联网服务,也是Starlink星座构建中,补充全球网络覆盖的重要卫星节点。

基本信息
目录编号:
46689
目录名称:
STARLINK-1788
国际标识:
2020-073V
轨道中心:
EARTH
卫星名称:
星链-1788
卫星全名:
星链-1788 (STARLINK-1788 )
卫星状态:
在轨 (已飞行1994 天)
发射日期:
2020-10-18 UTC
国别 :
美国 (US)
星等 :
--
轨道信息
数据来源 国际轨道数据
星历时间: 2026-04-04T04:00:02+0800
7小时前
查看轨道信息
半长轴: 6742.577km
偏心率: 0.0004789
轨道倾角: 53.040°
近地点辐角 63.776°
升交点赤经 95.022°
平近点角 199.915°
近地点: 361.21km
远地点: 367.67km
周期: 91.833分钟
每日圈数: 15.680645
详细信息
固有亮度:
5
最大亮度:
2.5
卫星平台:
Starlink V1.0
覆盖范围:
全球
运营商:
太空探索技术公司
运营商所在国:
美国
制造商(研发单位):
太空探索技术公司
制造商所在国:
美国
使用方式:
暂无
卫星简介
星链(Starlink)计划是由太空探索技术公司(SpaceX)提出的一个巨型低轨卫星互联网星座项目,计划在2019年至2024年间在太空搭建由约1.2万颗卫星组成的“星链”网络,其中1584颗将部署在地球上空550千米处的近地轨道,并从2020年开始工作。该卫星仍在工作。
2D轨道图
3D轨道图
轨道高度分析图
轨道倾角分析图
轨道综合分析图
查看轨道综合分析图